www.pogodaiklimat.ru

Погода и климат >> Архив погоды >> Канада >> Toronto


АРХИВ ПОГОДЫ в Toronto

Время (UTC), дата Ветер
(напр.,м/с)
 
Видим.   Явления Облачность Т
(С)
Тd
(С)
f
(%)
Тe
(С)
Тes
(С)
Комфортность P
(гПа)
Po
(гПа)
Тmin
(С)
Tmax
(С)
R
(мм)
R24
(мм)
S
(см)
06 15.05 ЮВ 2 16 км 10/8 1000 м
[Sc Ac As]
+18.0 +14.4 79 +19 +19 тепло 1008.6 988.2 +9.2 +24.3 0
09 15.05 З 2 8000 м 10/10 300 м
[]
+16.4 +15.1 92 +17 +17 тепло 1007.4 987.0
12 15.05 С 9 8000 м слабый дождь {гроза, ливн. осадки} 10/10 200 м
[Sc]
+15.4 +14.3 93 +13 +13 тепло 1008.4 987.9 +15.4 +24.3 17
15 15.05 СВ 2 24 км 10/0 2000 м
[]
+16.6 +12.9 79 +17 +25 тепло 1010.3 989.7
18 15.05 З 2 24 км в посл. час дождь 10/5 600 м
[Cu Sc Ac As]
+17.9 +14.2 79 +18 +21 тепло 1013.3 992.6 +14.7 +18.5 2
21 15.05 С 5 24 км 6/6 1000 м
[]
+20.6 +12.9 61 +23 +25 комфорт 1013.3 992.6
00 16.05 С 7 24 км 6/1 1000 м
[Cu hum Ci fib]
+17.5 +8.7 56 +17 +17 тепло 1015.1 994.3 +14.7 +21.6
03 16.05 С 5 24 км 5/5 1000 м
[]
+13.1 +4.0 54 +11 +11 по сезону 1017.3 996.4
06 16.05 С 3 24 км 1/0
[Ci fib]
+11.1 +4.0 62 +10 +10 по сезону 1017.7 996.8 +10.8 +21.6 121
09 16.05 С 3 24 км 6/0
[]
+9.0 +3.2 67 +7 +7 по сезону 1017.4 996.5
12 16.05 В 4 24 км 6/6 600 м
[Sc]
+11.6 +4.8 63 +10 +11 по сезону 1018.8 997.9 +8.0 +21.6
15 16.05 В 2 24 км 9/0
[]
+14.8 +5.2 53 +15 +22 тепло 1018.5 997.6
18 16.05 ЮВ 3 24 км 8/0
[Ci fib]
+16.4 +7.6 56 +16 +29 опасность
простуды
1016.7 995.8
21 16.05 Ю 4 24 км 8/0
[]
+18.4 +10.9 62 +19 +22 тепло 1015.3 994.4
00 17.05 ЮВ 2 24 км 6/0
[Ac trans Ci fib]
+14.3 +8.3 67 +14 +14 по сезону 1014.9 994.0 +8.0 +20.2
03 17.05 С 1 24 км 1/0
[]
+13.3 +8.1 71 +14 +14 тепло 1015.4 994.5
06 17.05 Ю 2 24 км 5/0
[Ci fib]
+13.6 +9.4 76 +13 +13 тепло 1014.8 994.0 +8.0 +20.2 8
09 17.05 З 1 24 км 3/0
[]
+12.8 +9.7 81 +13 +13 тепло 1014.6 993.8
12 17.05 С 3 24 км ясно +16.9 +11.3 70 +17 +19 тепло 1016.0 995.2 +11.6 +20.2
15 17.05 С 6 24 км ясно +19.6 +11.4 59 +21 +27 комфорт 1017.6 996.8
18 17.05 С 4 24 км ясно +23.1 +11.9 49 +26 +39 жарко 1018.3 997.5 +11.6 +23.5
21 17.05 С 7 24 км 1/0
[]
+23.3 +12.0 49 +26 +29 жарко 1018.3 997.5
00 18.05 С 8 24 км 8/0
[Ci fib]
+18.1 +6.7 47 +17 +17 тепло 1020.0 999.2 +11.6 +24.3
03 18.05 С 7 24 км 9/0
[]
+13.3 +0.2 41 +11 +11 по сезону 1022.7 1001.8
06 18.05 СВ 4 24 км 9/0
[Ci fib]
+13.8 +0.8 41 +13 +13 тепло 1024.5 1003.6 +11.6 +24.3 0
09 18.05 В 3 24 км 8/0
[]
+10.8 -4.5 34 +9 +9 по сезону 1025.8 1004.8
12 18.05 В 6 24 км 9/0
[Ci fib]
+11.5 -4.6 32 +9 +10 по сезону 1027.3 1006.2 +9.9 +24.3
15 18.05 В 7 24 км 8/0
[]
+14.3 -2.9 30 +12 +15 по сезону 1028.7 1007.5
18 18.05 В 8 24 км 9/0
[Ci fib]
+15.4 -4.7 25 +14 +16 прохладно 1027.1 1006.0 +9.9 +15.8
21 18.05 В 7 24 км 9/0
[]
+16.4 -4.0 24 +15 +16 по сезону 1024.9 1003.8
00 19.05 В 5 24 км 9/0
[Ac As Ci sp]
+15.1 -4.4 26 +14 +14 по сезону 1023.8 1002.7 +9.9 +16.8
03 19.05 В 3 24 км 8/0
[]
+14.1 -1.9 33 +14 +14 тепло 1023.5 1002.5
06 19.05 В 6 24 км 9/0
[Ac As Ci sp]
+14.1 -1.3 35 +13 +13 тепло 1021.6 1000.6 +9.9 +16.8 161
09 19.05 В 4 24 км 9/9 1000 м
[]
+12.6 +3.1 52 +11 +11 по сезону 1019.4 998.5
12 19.05 В 3 4800 м слабый дождь 10/0 50 м
[As op]
+11.6 +10.2 91 +10 +10 по сезону 1018.1 997.1 +9.9 +16.8 2
15 19.05 В 5 9000 м 10/10 50 м
[]
+12.0 +11.2 95 +10 +10 прохладно 1016.1 995.2
18 19.05 В 3 8000 м в посл. час дождь 10/10 50 м
[Sc]
+11.6 +10.8 95 +10 +10 холодно 1014.3 993.4 +9.9 +14.2 4
21 19.05 ЮВ 4 24 км 10/10 200 м
[]
+16.4 +15.0 91 +16 +16 по сезону 1011.4 990.6
00 20.05 Ю 3 24 км 9/6 100 м
[St Ac As]
+13.5 +11.6 88 +12 +13 прохладно 1010.4 989.6 +9.9 +16.8
03 20.05 ЮВ 2 16 км 9/9 50 м
[]
+11.8 +10.6 92 +11 +11 по сезону 1010.5 989.6
06 20.05 СЗ 4 24 км в посл. час ливневой дождь 10/8 300 м
[Cu Sc Ac As]
+15.1 +14.2 94 +14 +14 тепло 1010.4 989.6 +9.9 +16.8 2 7
09 20.05 СЗ 7 24 км 10/10 300 м
[]
+14.2 +12.3 88 +12 +12 тепло 1012.4 991.6
12 20.05 СЗ 6 24 км 10/10 200 м
[Sc]
+13.9 +12.0 88 +12 +12 тепло 1016.0 995.1 +11.7 +16.8
15 20.05 СЗ 5 24 км 5/5 600 м
[]
+16.5 +11.9 74 +16 +19 тепло 1018.3 997.4
18 20.05 С 5 24 км 8/5 600 м
[Sc Ac As Ci fib]
+18.5 +10.4 59 +19 +22 тепло 1019.4 998.5 +11.3 +18.7
21 20.05 СВ 5 24 км 5/5 1500 м
[]
+19.4 +8.4 49 +20 +22 тепло 1019.3 998.4
00 21.05 С 5 24 км 6/1 1500 м
[Sc Ci fib]
+15.9 +7.2 56 +15 +15 по сезону 1019.9 999.0 +13.5 +20.0
03 21.05 С 4 24 км ясно +11.0 +2.4 55 +9 +9 прохладно 1021.9 1000.9
06 21.05 СЗ 4 24 км ясно +9.2 0.0 53 +7 +7 по сезону 1022.6 1001.6 +9.2 +20.0 10
09 21.05 СЗ 3 24 км ясно +7.4 +3.3 75 +5 +5 прохладно 1023.5 1002.4
12 21.05 С 3 24 км 6/0
[Ci fib]
+11.5 +2.6 54 +10 +13 по сезону 1024.7 1003.6 +7.4 +20.0
15 21.05 ЮВ 2 24 км 8/0
[]
+17.4 +4.1 41 +18 +27 тепло 1024.9 1003.8
18 21.05 ЮВ 3 24 км 6/0
[Ac trans Ci fib]
+19.4 +1.9 31 +20 +34 опасность
простуды
1023.3 1002.3 +7.4 +19.7
21 21.05 ЮВ 3 24 км 9/0
[]
+20.3 -0.1 25 +21 +25 комфорт 1021.5 1000.5
00 22.05 СВ 2 24 км 10/0
[As op]
+20.1 +2.1 30 +21 +21 комфорт 1020.7 999.8 +7.4 +20.8

 

Местоположение метеостанции Toronto (Канада): широта 43.67 долгота -79.63 высота над уровнем моря 173 м.

В архиве по умолчанию представлена погода в Toronto за последнюю неделю. Архивные данные за месяц целиком и за предыдущие месяцы, начиная с января 2011 года, Вы можете получить, выбрав интересующий диапазон дат из раскрывающегося списка и нажав кнопку "Ввод!".


*Определитесь, кто Вы:
робот инопланетянин человек

Внимание! Время в таблицах - всемирное. Для получения местного времени необходимо прибавить поправку, которая в Toronto равна -5 ч.

Смотрите также архив погоды в соседних городах и на ближайших метеорологических станциях:

Погода в Toronto Aes Hq (Канада) (18 км)
Погода в Toronto City (Канада) (19 км)
Погода в Toronto Island Arpt (Канада) (19 км)
Погода в Toronto Buttonville (Канада) (31 км)
Погода в Buttonville (Канада) (31 км)
Погода в Burlington Piers (Канада) (43 км)
Погода в Hamilton Rbg Cs (Канада) (49 км)
Погода в Guelph Turfgrass (Канада) (49 км)
Погода в Vineland Station Rc (Канада) (58 км)
Погода в Port Weller (Канада) (58 км)

Пояснения к столбцам:

Ветер - указаны скорость ветра в м/с - средняя за 10 мин, порывы в срок и между сроками (в фигурных скобках) и направление, откуда дует ветер: С - северный, СВ - северо-восточный, В - восточный, ЮВ - юго-восточный, Ю - южный, ЮЗ - юго-западный, З - западный, СЗ - северо-западный.
Видимость - горизонтальная дальность видимости в метрах или километрах. При видимости от 1 до 10 км при отсутствии осадков обычно наблюдается дымка, при ухудшении видимости до 1 км и менее - туман. В сухую погоду видимость может ухудшаться дымом, пылью или мглою.
Явления - указаны атмосферные явления, наблюдавшиеся в срок или в последний час перед сроком; фигурными скобками обозначены явления, наблюдавшиеся между сроками (за 1-3 часа до срока); квадратными скобками обозначены град или гололедные отложения с указанием их диаметра в мм.
Облачность - указаны через наклонную черту общая и нижняя облачность в баллах и высота нижней границы облаков в метрах; квадратными скобками обозначены формы облаков: Ci - перистые, Cs - перисто-слоистые, Cc - перисто-кучевые, Ac - высококучевые, As - высокослоистые, Sc - слоисто-кучевые, Ns - слоисто-дождевые, Cu - кучевые, Cb - кучево-дождевые. Подробнее классификацию облаков см. в Атласе облаков (PDF).
T - Температура воздуха - температура, измеренная на высоте 2 м над землей.
Td - Температура точки росы - температура, при понижении до которой содержащийся в воздухе водяной пар достигнет насыщения.
f - Относительная влажность воздуха - влажноcть воздуха, измеренная на высоте 2 м над землей.
Te - Эффективная температура - температура, которую ощущает одетый по сезону человек в тени. Характеристика душности погоды. При расчете учитывается влияние влажности воздуха и скорости ветра на теплоощущения человека.
Tes - Эффективная температура на солнце - температура, которую ощущает человек, с поправкой на солнечный нагрев. Характеристика знойности погоды. Зависит от высоты солнца над горизонтом, облачности и скорости ветра. Ночью, в пасмурную погоду, а также при ветре 12 м/с и более поправка равна нулю.
P - Атмосферное давление - приведенное к уровню моря атмосферное давление.
Po - Атмосферное давление - измеренное на уровне метеостанции атмосферное давление.
Tmin - Минимальная температура - минимум температуры воздуха на высоте 2 м над землей.
Tmax - Максимальная температура - максимум температуры воздуха на высоте 2 м над землей.
R - Количество осадков - Количество выпавших осадков за период времени, мм. При наведении курсора мыши на число - период времени, за который выпало указанное количество осадков.
R24 - Количество осадков - Количество выпавших осадков за 24 часа, мм.
S - Снежный покров - Высота снежного покрова, см. При наведении курсора мыши на число - состояние снежного покрова и степень покрытия местности в баллах.